Location: Gajan
(43.0218°N, 1.1244°E)
Time: 08:23:53
(UTC+00:00)

SL-4 R/B - Pass Details

Date: 22 April 2021
Orbit: 427 x 663 km, 51.6° (Epoch: 08 May)

Event Time Altitude Azimuth Distance (km) Brightness Sun altitude
Rises 21:22:50 0° 260° (W) 2,789 6.0 -24.6°
Reaches altitude 10° 21:25:07 10° 267° (W) 1,930 5.2 -24.9°
Maximum altitude 21:29:22 43° 339° (NNW) 882 3.4 -25.4°
Enters shadow 21:33:35 12° 50° (NE) 1,941 4.8 -25.9°
